Weather History for Marfa, TX

Change the Weather History Date:

Thursday, November 29, 2012

  Actual Average Record
Temperature  
Mean Temperature 52 °F -  
Max Temperature 71 °F 58 °F 71 °F (2012)
Min Temperature 33 °F 29 °F 10 °F (2001)
Degree Days  
Heating Degree Days 13    
Growing Degree Days 2 (Base 50)    
Moisture  
Dew Point 31 °F    
Average Humidity 51    
Maximum Humidity 81    
Minimum Humidity 22    
Precipitation  
Precipitation 0.00 in - - ()
Sea Level Pressure  
Sea Level Pressure 30.23 in    
Wind  
Wind Speed 2 mph (WNW)    
Max Wind Speed 15 mph    
Max Gust Speed 22 mph    
Visibility 10 miles    
Events      
Averages and records for this station are not official NWS values.
T = Trace of Precipitation, MM = Missing Value Source: NWS Daily Summary

Daily Weather History Graph

Daily Weather History Graph

Search for Another Location

Airport:

Trip Planner

Search our weather history database for the weather conditions in past years. The results will help you decide how hot, cold, wet, or windy it might be!

Date:

Astronomy

Nov. 29, 2012 Rise Set
Actual Time 7:33 AM CST 5:55 PM CST
Civil Twilight 7:07 AM CST 6:21 PM CST
Nautical Twilight 6:38 AM CST 6:50 PM CST
Astronomical Twilight 6:09 AM CST 7:19 PM CST
Moon 7:00 PM CST 8:22 AM CST
Length of Visible Light 11h 13m
Length of Day
10h 21m
Full, 99% of the Moon is Illuminated
Nov 29
Full
Dec 6
Last Quarter
Dec 13
New
Dec 19
First Quarter
Dec 28
Full

Hourly Weather History & Observations

Time (CST) Temp. Windchill Dew Point Humidity Pressure Visibility Wind Dir Wind Speed Gust Speed Precip Events Conditions
12:15 AM 42.8 °F - 30.2 °F 61% 30.25 in 10.0 mi Calm Calm - N/A   Clear
12:35 AM 42.8 °F - 30.2 °F 61% 30.25 in 10.0 mi Calm Calm - N/A   Clear
12:55 AM 41.0 °F - 30.2 °F 65% 30.25 in 10.0 mi Calm Calm - N/A   Clear
1:15 AM 42.8 °F - 30.2 °F 61% 30.25 in 10.0 mi Calm Calm - N/A   Clear
1:35 AM 42.8 °F - 30.2 °F 61% 30.25 in 10.0 mi Calm Calm - N/A   Clear
1:55 AM 39.2 °F - 28.4 °F 65% 30.25 in 10.0 mi Calm Calm - N/A   Clear
2:15 AM 39.2 °F - 30.2 °F 70% 30.24 in 10.0 mi Calm Calm - N/A   Clear
2:35 AM 39.2 °F - 30.2 °F 70% 30.25 in 10.0 mi Calm Calm - N/A   Clear
2:55 AM 41.0 °F - 30.2 °F 65% 30.24 in 10.0 mi Calm Calm - N/A   Clear
3:15 AM 41.0 °F - 30.2 °F 65% 30.24 in 10.0 mi Calm Calm - N/A   Clear
3:35 AM 37.4 °F - 28.4 °F 70% 30.24 in 10.0 mi Calm Calm - N/A   Clear
3:55 AM 37.4 °F - 28.4 °F 70% 30.24 in 10.0 mi Calm Calm - N/A   Clear
4:15 AM 37.4 °F - 28.4 °F 70% 30.24 in 10.0 mi Calm Calm - N/A   Clear
4:35 AM 35.6 °F - 28.4 °F 75% 30.23 in 10.0 mi Calm Calm - N/A   Clear
4:55 AM 35.6 °F - 28.4 °F 75% 30.23 in 10.0 mi Calm Calm - N/A   Clear
5:15 AM 35.6 °F - 28.4 °F 75% 30.23 in 10.0 mi Calm Calm - N/A   Clear
5:35 AM 35.6 °F - 26.6 °F 70% 30.23 in 10.0 mi Calm Calm - N/A   Clear
5:55 AM 35.6 °F - 28.4 °F 75% 30.23 in 10.0 mi Calm Calm - N/A   Clear
6:15 AM 33.8 °F - 26.6 °F 75% 30.23 in 10.0 mi Calm Calm - N/A   Clear
6:35 AM 33.8 °F - 28.4 °F 81% 30.24 in 10.0 mi Calm Calm - N/A   Clear
6:55 AM 35.6 °F - 28.4 °F 75% 30.24 in 10.0 mi Calm Calm - N/A   Clear
7:15 AM 33.8 °F - 28.4 °F 81% 30.24 in 10.0 mi Calm Calm - N/A   Clear
7:35 AM 35.6 °F - 28.4 °F 75% 30.25 in 10.0 mi Calm Calm - N/A   Clear
7:55 AM 35.6 °F - 28.4 °F 75% 30.24 in 10.0 mi Calm Calm - N/A   Clear
8:15 AM 37.4 °F - 30.2 °F 75% 30.25 in 10.0 mi Calm Calm - N/A   Clear
8:35 AM 42.8 °F - 32.0 °F 66% 30.26 in 10.0 mi Calm Calm - N/A   Clear
8:55 AM 48.2 °F - 33.8 °F 58% 30.26 in 10.0 mi Calm Calm - N/A   Clear
9:15 AM 51.8 °F - 35.6 °F 54% 30.27 in 10.0 mi Calm Calm - N/A   Clear
9:35 AM 53.6 °F - 35.6 °F 51% 30.27 in 10.0 mi Calm Calm - N/A   Clear
10:15 AM 57.2 °F - 37.4 °F 48% 30.28 in 10.0 mi Calm Calm - N/A   Clear
10:35 AM 57.2 °F - 37.4 °F 48% 30.27 in 10.0 mi Calm Calm - N/A   Clear
10:55 AM 60.8 °F - 37.4 °F 42% 30.27 in 10.0 mi Calm Calm - N/A   Clear
11:15 AM 62.6 °F - 39.2 °F 42% 30.27 in 10.0 mi Calm Calm - N/A   Clear
11:35 AM 64.4 °F - 39.2 °F 40% 30.26 in 10.0 mi Calm Calm - N/A   Clear
11:55 AM 66.2 °F - 39.2 °F 37% 30.25 in 10.0 mi WSW 6.9 mph - N/A   Clear
12:15 PM 69.8 °F - 39.2 °F 33% 30.25 in 10.0 mi WNW 9.2 mph - N/A   Clear
12:35 PM 69.8 °F - 37.4 °F 31% 30.24 in 10.0 mi WSW 9.2 mph - N/A   Clear
12:55 PM 69.8 °F - 35.6 °F 28% 30.23 in 10.0 mi West 13.8 mph 17.3 mph N/A   Clear
1:15 PM 69.8 °F - 37.4 °F 31% 30.22 in 10.0 mi West 15.0 mph 21.9 mph N/A   Clear
1:35 PM 71.6 °F - 35.6 °F 27% 30.21 in 10.0 mi WSW 12.7 mph 17.3 mph N/A   Clear
1:55 PM 71.6 °F - 33.8 °F 25% 30.20 in 10.0 mi West 12.7 mph 19.6 mph N/A   Clear
2:15 PM 71.6 °F - 33.8 °F 25% 30.19 in 10.0 mi West 15.0 mph 20.7 mph N/A   Clear
2:35 PM 71.6 °F - 32.0 °F 23% 30.19 in 10.0 mi West 12.7 mph 19.6 mph N/A   Clear
2:55 PM 71.6 °F - 32.0 °F 23% 30.18 in 10.0 mi West 13.8 mph - N/A   Clear
3:15 PM 71.6 °F - 30.2 °F 22% 30.18 in 10.0 mi WNW 12.7 mph - N/A   Clear
3:35 PM 71.6 °F - 30.2 °F 22% 30.18 in 10.0 mi West 13.8 mph - N/A   Clear
3:55 PM 69.8 °F - 30.2 °F 23% 30.18 in 10.0 mi West 12.7 mph - N/A   Clear
4:15 PM 69.8 °F - 30.2 °F 23% 30.18 in 10.0 mi West 11.5 mph - N/A   Clear
4:35 PM 69.8 °F - 30.2 °F 23% 30.18 in 10.0 mi WNW 11.5 mph - N/A   Clear
4:55 PM 69.8 °F - 30.2 °F 23% 30.18 in 10.0 mi WNW 11.5 mph - N/A   Clear
5:15 PM 68.0 °F - 28.4 °F 23% 30.18 in 10.0 mi WNW 9.2 mph - N/A   Clear
5:35 PM 66.2 °F - 30.2 °F 26% 30.18 in 10.0 mi West 8.1 mph - N/A   Clear
5:55 PM 62.6 °F - 28.4 °F 27% 30.18 in 10.0 mi West 9.2 mph - N/A   Clear
6:15 PM 57.2 °F - 28.4 °F 33% 30.18 in 10.0 mi West 9.2 mph - N/A   Clear
6:35 PM 55.4 °F - 28.4 °F 36% 30.19 in 10.0 mi West 6.9 mph - N/A   Clear
6:55 PM 53.6 °F - 30.2 °F 41% 30.19 in 10.0 mi West 6.9 mph - N/A   Clear
7:15 PM 53.6 °F - 30.2 °F 41% 30.20 in 10.0 mi WNW 6.9 mph - N/A   Clear
7:35 PM 53.6 °F - 30.2 °F 41% 30.21 in 10.0 mi WNW 11.5 mph - N/A   Clear
7:55 PM 50.0 °F - 28.4 °F 43% 30.21 in 10.0 mi NNW 6.9 mph - N/A   Clear
8:15 PM 46.4 °F 43.5 °F 28.4 °F 50% 30.21 in 10.0 mi NNW 5.8 mph - N/A   Clear
8:35 PM 46.4 °F - 30.2 °F 53% 30.22 in 10.0 mi Calm Calm - N/A   Clear
8:55 PM 46.4 °F - 30.2 °F 53% 30.22 in 10.0 mi Calm Calm - N/A   Clear
9:15 PM 44.6 °F - 28.4 °F 53% 30.22 in 10.0 mi Calm Calm - N/A   Clear
9:35 PM 44.6 °F - 28.4 °F 53% 30.22 in 10.0 mi Calm Calm - N/A   Clear
9:55 PM 42.8 °F - 28.4 °F 57% 30.22 in 10.0 mi Calm Calm - N/A   Clear
10:15 PM 44.6 °F - 28.4 °F 53% 30.22 in 10.0 mi Calm Calm - N/A   Clear
10:35 PM 41.0 °F - 26.6 °F 57% 30.22 in 10.0 mi Calm Calm - N/A   Clear
10:55 PM 39.2 °F - 26.6 °F 61% 30.22 in 10.0 mi Calm Calm - N/A   Clear
11:15 PM 39.2 °F - 26.6 °F 61% 30.22 in 10.0 mi Calm Calm - N/A   Clear
11:35 PM 37.4 °F - 26.6 °F 65% 30.22 in 10.0 mi Calm Calm - N/A   Clear
11:55 PM 37.4 °F - 28.4 °F 70% 30.22 in 10.0 mi Calm Calm - N/A   Clear